Location: ??????
(55.7522°N, 37.6156°E)
Time: 12:45:07
(UTC+00:00)

USA 229 DEB - Pass Details

Date: 14 December 2025
Orbit: 844 x 1364 km, 63.4° (Epoch: 10 January)

Event Time Altitude Azimuth Distance (km) Brightness Sun altitude
Exits shadow 04:08:52 16° 302° (WNW) 2,617 5.1 -13.0°
Maximum altitude 04:14:37 52° 233° (SW) 1,507 4.3 -12.3°
Drops below altitude 10° 04:22:26 10° 160° (SSE) 3,347 7.0 -11.3°
Sets 04:25:27 0° 156° (SSE) 4,352 7.7 -10.9°
